Erevan, Arménie

02:02 AMT le 30 juillet 2015 (GMT +0400)
Zvartnots | | Change Station
CLOSE
Current Station
Aéroport
Location: Zvartnots,
Altitude: 2838 ft
Stations météo à proximité

Alt. 2838 ft 40.15 °N, 44.40 °E | Updated 32 minutes ago

Partly Cloudy
Partiellement nuageux
84 ° F
Paraît 84 ° F
N
9
Vent Variable Vent de NNO

Aujourd'hui
Haut(e) -- | Bas -- ° F
--% Risque de précip.
Hier
Haut(e) -- | Bas -- ° F
Precip. -- pouce
5:57 AM 8:18 PM
Lune gibbeuse croissante, 97% visible
Pression 29.89 pouce
Visibilité 6.2 Miles terrestres
Nuages Peu 10000 ft
Point de rosée 46 ° F
Humidité 27%
Précipitations 0.00 pouce
Profondeur de la couche neigeuse Non disponible.
UV 0 sur 12
Pollen Non disponible.
Qualité de l'air Non disponible.
Flu Activity Non disponible.
METAR UDYZ 292130Z 34004MPS 9999 FEW100 29/08 Q1012 R09/000070 NOSIG

More Conditions Fewer Conditions

Pression 29.89 pouce
Visibilité 6.2 Miles terrestres
Nuages Peu 10000 ft
Point de rosée 46 ° F
Humidité 27%
Précipitations 0.00 pouce
Profondeur de la couche neigeuse Non disponible.
UV 0 sur 12
Pollen Non disponible.
Qualité de l'air Non disponible.
Flu Activity Non disponible.
METAR UDYZ 292130Z 34004MPS 9999 FEW100 29/08 Q1012 R09/000070 NOSIG

More Conditions Fewer Conditions

10-Day Weather Forecast

×

Almanac

Astronomie

Jul. 30, 2015 Lever Coucher
Temps réel
Crépuscule civil
Crépuscule nautique
Crépuscule astronomique
Lune
Durée de lumière visible
Longueur du jour
Tomorrow will be .
, % of the Moon is Illuminated

Extrêmes aujourd'hui

Country Highs Country Lows

Community

WunderPhotos

Upload Photos

1,842,159 Photos téléchargées !

WunderBlogs® & News

Nearby

Qualité de l'air

  Qualité de l'air Indice de la qualité de l'air Polluant
Not available.

Épaisseur de neige

Station Depth Altitude

Activité sismique

Ville Distance Mag. Time & Date
Minimum magnitude displayed is 2.5.

Températures des eaux côtières

Lieu Température

Stations

Stations météo à proximité

Emplacement de la station Température Refroidissement éolien Point de rosée Humidité Vent Precip. Alt. Mise à jour Type